www.pogodaiklimat.ru

Погода и климат >> Архив погоды >> Россия >> Оренбургская область >> Беляевка


ПОГОДА в Беляевке

  • Прогноз погоды в Беляевке
  • Монитор погоды в Беляевке

АРХИВ ПОГОДЫ в Беляевке

Время (UTC), дата Ветер
(напр.,м/с)
 
Видим.   Явления Облачность Т
(С)
Тd
(С)
f
(%)
Тe
(С)
Тes
(С)
Комфортность P
(гПа)
Po
(гПа)
Тmin
(С)
Tmax
(С)
R
(мм)
R24
(мм)
S
(см)
09 9.07 Ю 3 20 км 8/8 840 м
[Cu med, cong]
+33.1 +7.0 20 +31 +34 жарко 1006.8 991.9
12 9.07 ЮЗ 4
{12}
20 км 8/8 840 м
[Cu med, cong]
+34.3 +6.9 18 +32 +33 жарко 1005.4 990.7
15 9.07 ЮЗ 2 20 км 4/4 600 м
[Cu med, cong]
+31.5 +8.8 24 +30 +31 жарко 1005.1 990.2 +34.8
18 9.07 Ю 2 10 км 3/3 600 м
[Cb cap]
+22.9 +9.1 41 +24 +24 комфорт 1006.0 990.7
21 9.07 Ю 3 10 км ясно +22.7 +6.8 36 +23 +23 комфорт 1005.4 990.1
00 10.07 ЮВ 3 20 км 8/3 600 м
[Cb cap Ci fib]
+21.6 +6.9 39 +22 +22 комфорт 1004.8 989.4
03 10.07 Ю 3 20 км 9/9 660 м
[Cb cap]
+23.5 +7.4 36 +24 +24 комфорт 1005.1 989.8 +18.1
06 10.07 ЮВ 2 4000 м слаб. дождь 10/0
[As op]
+23.3 +15.9 63 +28 +31 душно 1005.1 989.9
09 10.07 Ю 6 20 км {дождь} 9/0
[Cs]
+30.6 +10.9 30 +31 +36 жарко 1003.7 988.8
12 10.07 Ю 5 20 км {дождь} 9/0
[Cs]
+31.9 +10.8 27 +32 +35 жарко 1002.6 987.8
15 10.07 ЮЗ 3 20 км 10/10 660 м
[Cb cap]
+30.0 +12.3 34 +31 +31 жарко 1002.1 987.2 +32.2 0.0
18 10.07 ЮВ 1
{12}
4000 м слаб. ливневой дождь {гроза} 10/10 660 м
[Cb calv]
+20.9 +18.4 86 +26 +26 душно 1004.4 989.1
21 10.07 ЮЗ 1 10 км {ливн. осадки} 10/10 800 м
[Cb calv]
+20.1 +17.8 87 +24 +24 комфорт 1005.6 990.2
00 11.07 СЗ 1 20 км {ливн. осадки} 4/0
[Ci sp]
+17.4 +15.9 91 +18 +18 1006.1 990.5
03 11.07 З 2 20 км 8/0
[Ac trans]
+19.7 +15.3 76 +22 +24 комфорт 1007.5 992.1 +16.9 4
06 11.07 СЗ 2 20 км 3/0
[Ci fib]
+26.2 +12.3 42 +28 +40 жарко 1007.6 992.5
09 11.07 СЗ 3 20 км 6/0
[Ci fib]
+28.9 +8.9 29 +29 +41 жарко 1007.8 992.8
12 11.07 З 3 20 км 8/8 840 м
[Cu med, cong]
+29.7 +7.7 25 +29 +30 жарко 1007.6 992.6
15 11.07 СВ 3 20 км ясно +27.7 +9.9 33 +28 +29 жарко 1008.4 993.3 +30.3
18 11.07 СВ 2 10 км ясно +20.0 +11.5 58 +22 +22 комфорт 1009.1 993.6
21 11.07 В 2 10 км ясно +16.6 +11.2 70 +17 +17 1008.9 993.2
00 12.07 ЮВ 1 20 км ясно +15.5 +10.1 70 +16 +16 1008.8 993.1
03 12.07 В 4 20 км 3/0
[Ci fib]
+23.2 +10.1 43 +25 +27 комфорт 1008.2 992.9 +14.9
06 12.07 В 7
{11}
20 км 8/0
[Ci fib]
+30.9 +11.6 31 +31 +34 жарко 1007.1 992.2
09 12.07 В 4
{11}
20 км 6/6 840 м
[Cu med, cong]
+35.7 +11.6 23 +35 +40 очень
жарко
1004.9 990.3
12 12.07 ЮВ 5
{10}
20 км 8/8 840 м
[Cu med, cong]
+37.3 +8.4 17 +35 +36 очень
жарко
1003.4 988.8
15 12.07 В 2
{10}
20 км ясно +35.7 +10.6 22 +35 +36 очень
жарко
1001.7 987.1 +37.8
18 12.07 СВ 2 10 км 3/0
[Ci fib]
+27.9 +11.7 37 +29 +29 жарко 1001.2 986.2
21 12.07 В 2 10 км 6/0
[Ci fib]
+23.8 +10.0 42 +25 +25 комфорт 1000.6 985.4
00 13.07 ЮВ 2 20 км 6/0
[Ci fib]
+20.1 +9.4 50 +22 +22 комфорт 1001.4 986.0
03 13.07 В 2 20 км 8/0
[Ci fib]
+28.7 +10.6 32 +29 +32 жарко 1002.7 987.7 +19.1
06 13.07 В 5 20 км 8/8 600 м
[Cb cap]
+32.7 +10.2 25 +32 +33 жарко 1002.2 987.4
09 13.07 Ю 7
{13}
20 км 8/8 660 м
[Cb calv]
+38.0 +6.8 15 +36 +36 очень
жарко
1000.7 986.2
12 13.07 Ю 9-15
{16}
20 км 8/6 700 м
[Cu med, cong Ci]
+38.7 +6.0 14 +36 +36 очень
жарко
1000.0 985.5
15 13.07 В 1
{15}
20 км 8/8 720 м
[Sc diur, vesp]
+30.6 +12.5 33 +31 +32 жарко 1001.8 987.0 +39.2
18 13.07 Ю 4 10 км 9/9 660 м
[Cb cap]
+28.9 +12.6 37 +30 +30 жарко 1003.9 988.9
21 13.07 Ю 2
{15}
10 км 9/9 630 м
[Cb cap]
+26.7 +13.0 43 +28 +28 жарко 1003.5 988.5
00 14.07 З 1 20 км гроза без осадков {ливн. осадки} 9/9 600 м
[Cb cap]
+21.8 +16.2 70 +26 +26 душно 1004.3 989.0
03 14.07 С 2 20 км {гроза, ливн. осадки} 8/0
[Ci fib]
+21.2 +17.9 81 +25 +28 комфорт 1005.4 990.0 +20.1 0.0
06 14.07 СЗ 3 20 км {гроза, ливн. осадки} 8/3 600 м
[Cb cap Ac trans Ci fib]
+24.3 +17.6 66 +28 +33 душно 1006.4 991.3
09 14.07 СЗ 3 20 км 8/0
[Ac trans Ci fib]
+26.3 +17.3 58 +30 +38 душно 1005.5 990.5
12 14.07 З 2 20 км 9/4 600 м
[Cu med, cong Ci fib]
+28.9 +16.0 46 +32 +36 душно 1004.6 989.6
15 14.07 С 3 20 км 9/9 800 м
[Cb cap]
+25.9 +17.1 58 +30 +30 душно 1004.0 989.0 +29.7
18 14.07 С 3 10 км 8/8 630 м
[Cb cap]
+23.4 +18.0 72 +29 +29 душно 1001.4 986.2
21 14.07 СЗ 4 10 км 8/8 630 м
[Cb cap]
+22.6 +19.3 82 +29 +29 очень
душно
997.3 982.2
00 15.07 С 6-11
{17}
10 км гроза без осадков {ливн. осадки} 9/9 600 м
[Cb cap]
+19.7 +18.2 91 +22 +22 комфорт 994.0 978.7
03 15.07 З 6
{14}
10 км {гроза} 10/0
[As op]
+19.4 +17.0 86 +21 +21 комфорт 996.7 981.4 +18.3 0.0
06 15.07 З 7-10
{13}
20 км {гроза} 10/10 540 м
[Frnb Ns]
+19.6 +15.4 77 +21 +21 комфорт 1000.3 985.0
09 15.07 З 8-13
{14}
20 км 9/9 630 м
[Cb calv]
+20.5 +13.2 63 +22 +23 комфорт 1003.8 988.4
12 15.07 З 8-16
{16}
20 км 6/6 840 м
[Cu med, cong]
+23.9 +10.9 44 +25 +26 комфорт 1005.4 990.2
15 15.07 СЗ 6-10
{16}
20 км ясно +22.4 +10.1 46 +24 +24 комфорт 1007.3 992.0 +24.4
18 15.07 СЗ 1
{10}
10 км ясно +17.2 +10.4 64 +18 +18 1009.8 994.1
21 15.07 штиль 0 10 км ясно +10.2 +7.9 86 +9 +9 1010.8 994.7
00 16.07 В 1 20 км ясно +8.8 +7.5 92 +8 +8 1011.7 995.6
03 16.07 СВ 1 20 км ясно +17.1 +10.7 66 +18 +22 1012.6 996.9 +8.0

 

Местоположение метеостанции Беляевка (Оренбургская область, Россия): широта 51.42 долгота 56.42 высота над уровнем моря 131 м.

В архиве по умолчанию представлена погода в Беляевке за последнюю неделю. Архивные данные за месяц целиком и за предыдущие месяцы, начиная с января 2011 года, Вы можете получить, выбрав интересующий диапазон дат из раскрывающегося списка и нажав кнопку "Ввод!".


*Определитесь, кто Вы:
робот инопланетянин человек

Внимание! Время в таблицах - всемирное. Для получения местного времени необходимо прибавить поправку, которая равна 5 ч.

Смотрите также архив погоды в соседних городах и на ближайших метеорологических станциях:

Погода в Кувандыке (Оренбургская область, Россия) (66 км)
Погода в Акбулаке (Оренбургская область, Россия) (71 км)
Погода в Новокуйбышевске (Самарская область, Россия) (71 км)
Погода в Мартуке (Актюбинская область, Казахстан) (75 км)
Погода в Оренбурге (Оренбургская область, Россия) (96 км)
Погода в Троицком Т (Оренбургская область, Россия) (101 км)
Погода в Родниковке (Актюбинская область, Казахстан) (101 км)
Погода в Татарской Каргале (Оренбургская область, Россия) (101 км)
Погода в Соль-Илецк (Оренбургская область, Россия) (102 км)
Погода в Зилаире (Башкирия, Россия) (112 км)

Пояснения к столбцам:

Ветер - указаны скорость ветра в м/с - средняя за 10 мин, порывы в срок и между сроками (в фигурных скобках) и направление, откуда дует ветер: С - северный, СВ - северо-восточный, В - восточный, ЮВ - юго-восточный, Ю - южный, ЮЗ - юго-западный, З - западный, СЗ - северо-западный.
Видимость - горизонтальная дальность видимости в метрах или километрах. При видимости от 1 до 10 км при отсутствии осадков обычно наблюдается дымка, при ухудшении видимости до 1 км и менее - туман. В сухую погоду видимость может ухудшаться дымом, пылью или мглою.
Явления - указаны атмосферные явления, наблюдавшиеся в срок или в последний час перед сроком; фигурными скобками обозначены явления, наблюдавшиеся между сроками (за 1-3 часа до срока); квадратными скобками обозначены град или гололедные отложения с указанием их диаметра в мм.
Облачность - указаны через наклонную черту общая и нижняя облачность в баллах и высота нижней границы облаков в метрах; квадратными скобками обозначены формы облаков: Ci - перистые, Cs - перисто-слоистые, Cc - перисто-кучевые, Ac - высококучевые, As - высокослоистые, Sc - слоисто-кучевые, Ns - слоисто-дождевые, Cu - кучевые, Cb - кучево-дождевые. Подробнее классификацию облаков см. в Атласе облаков (PDF).
T - Температура воздуха - температура, измеренная на высоте 2 м над землей.
Td - Температура точки росы - температура, при понижении до которой содержащийся в воздухе водяной пар достигнет насыщения.
f - Относительная влажность воздуха - влажноcть воздуха, измеренная на высоте 2 м над землей.
Te - Эффективная температура - температура, которую ощущает одетый по сезону человек в тени. Характеристика душности погоды. При расчете учитывается влияние влажности воздуха и скорости ветра на теплоощущения человека.
Tes - Эффективная температура на солнце - температура, которую ощущает человек, с поправкой на солнечный нагрев. Характеристика знойности погоды. Зависит от высоты солнца над горизонтом, облачности и скорости ветра. Ночью, в пасмурную погоду, а также при ветре 12 м/с и более поправка равна нулю.
P - Атмосферное давление - приведенное к уровню моря атмосферное давление.
Po - Атмосферное давление - измеренное на уровне метеостанции атмосферное давление.
Tmin - Минимальная температура - минимум температуры воздуха на высоте 2 м над землей.
Tmax - Максимальная температура - максимум температуры воздуха на высоте 2 м над землей.
R - Количество осадков - Количество выпавших осадков за период времени, мм. При наведении курсора мыши на число - период времени, за который выпало указанное количество осадков.
R24 - Количество осадков - Количество выпавших осадков за 24 часа, мм.
S - Снежный покров - Высота снежного покрова, см. При наведении курсора мыши на число - состояние снежного покрова и степень покрытия местности в баллах.